Tracking 29892 objects as of 21-Nov-2024
HD Live streaming from Space Station
objects crossing your sky now

STARLINK-5160

Track STARLINK-5160 now!
10-day predictions
STARLINK-5160 is classified as:


NORAD ID: 54080
Int'l Code: 2022-136AF
Perigee: 545.8 km
Apogee: 548.0 km
Inclination: 53.2 °
Period: 95.4 minutes
Semi major axis: 6917 km
RCS: Unknown
Launch date: October 20, 2022
Source: United States (US)
Launch site: AIR FORCE EASTERN TEST RANGE (AFETR)
Your satellite tracking list
Your tracking list is empty




NASA's NSSDC Master Catalog

Two Line Element Set (TLE):
1 54080U 22136AF  24325.35667187  .00002062  00000-0  14760-3 0  9991
2 54080  53.2170 308.6451 0001591  88.2846 271.8328 15.08846264115301
Source of the keplerian elements: AFSPC